Wetbulb
71.56 71.26 70.97 70.77 70.51 70.24 69.97 70.28 70.51 70.71 70.93 71.11 71.13 70.90 70.83 71.11 71.12 71.39 71.07 70.67 70.24 69.55 68.58 67.67 67.07 66.46 66.56 66.76 66.91 67.60 67.45 68.65
70.47 70.60 71.03 71.08 70.99 69.64 69.28 69.30 69.52 69.86 70.19 70.13 69.68 69.90 70.08 70.47 70.47 71.06 70.89 70.55 69.74 69.11 67.90 66.91 65.98 65.89 65.92 65.94 66.27 67.00 67.20 67.96
69.97 69.96 70.47 71.26 71.18 70.68 69.55 69.67 69.27 69.32 69.80 69.73 68.05 69.56 69.85 69.97 69.87 69.88 70.08 69.60 69.06 68.16 66.80 65.67 64.47 64.99 65.51 65.76 66.03 66.29 67.08 67.82
70.14 70.36 70.54 71.05 70.36 70.50 70.45 70.17 69.88 69.73 69.54 69.87 69.36 69.01 69.30 69.75 68.98 69.36 69.45 68.80 68.22 67.23 65.88 64.57 63.23 63.30 63.76 65.06 64.67 66.49 66.69 66.13
70.76 70.87 70.98 70.93 70.22 70.18 69.66 69.63 69.10 69.20 69.42 69.61 69.36 69.25 69.91 69.36 68.76 68.87 68.46 67.87 66.66 65.03 63.33 62.13 62.57 62.76 64.30 63.89 64.83 66.79 66.04 65.10
71.03 71.26 71.33 71.45 71.25 70.63 69.57 69.38 69.32 69.20 69.66 70.43 69.25 69.32 69.62 68.98 68.69 68.47 68.05 67.19 66.27 65.11 63.97 62.57 62.97 63.54 63.20 63.68 65.03 64.31 65.98 64.53
70.81 71.14 71.66 71.58 72.43 71.12 69.88 69.07 69.29 69.56 69.70 70.28 70.17 69.98 69.82 69.02 69.07 68.20 67.62 67.83 66.51 65.12 63.68 63.02 62.10 61.37 61.02 61.82 62.97 62.97 64.93 64.81
72.28 71.74 71.66 72.00 71.19 72.01 70.64 72.20 70.67 70.06 69.83 70.10 71.08 70.11 69.60 68.33 68.50 68.18 66.86 66.77 65.87 64.95 62.81 61.05 59.37 59.75 60.01 61.47 61.90 62.36 62.99 62.51
71.87 71.95 71.88 71.29 71.24 71.68 71.81 71.70 71.69 70.55 70.64 70.80 70.70 70.47 69.43 68.79 68.46 68.07 66.92 66.20 66.01 63.80 62.45 59.97 58.56 59.48 59.64 60.88 61.63 62.08 61.75 61.20
72.37 71.89 71.57 71.21 70.82 70.57 70.79 69.83 70.78 70.44 70.47 70.64 70.48 70.38 69.79 68.72 68.16 67.81 66.96 66.72 65.10 62.81 60.27 58.28 57.31 57.68 58.17 59.53 60.01 60.38 60.04 59.67
70.76 71.22 70.06 68.90 69.32 68.95 69.18 68.96 69.20 69.13 69.71 70.48 69.73 69.82 69.73 68.89 68.35 67.76 67.68 66.32 64.85 62.55 59.62 57.76 56.40 57.05 58.31 58.72 58.81 58.25 58.69 59.72
70.58 69.98 70.05 69.31 69.00 68.66 68.20 68.20 68.67 68.27 68.33 68.36 68.53 68.34 68.52 68.36 67.93 67.36 67.06 65.95 64.15 61.88 59.79 57.83 56.90 56.72 58.37 58.16 57.53 57.48 58.08 58.00
68.86 68.67 68.95 67.94 67.19 66.54 66.07 65.49 66.14 66.52 67.10 67.19 67.42 67.89 67.77 67.17 66.90 66.80 66.39 64.36 63.03 61.42 59.39 58.08 56.09 57.29 55.37 54.90 55.33 56.40 56.76 57.01
64.63 65.27 66.92 68.05 68.06 66.94 66.42 65.87 65.89 66.35 66.54 66.50 66.61 66.07 66.04 65.59 65.75 65.31 65.27 64.46 63.40 61.80 58.89 56.88 56.81 57.43 54.36 52.76 49.67 51.63 54.33 56.21
59.31 59.74 59.80 59.81 64.15 66.91 65.89 65.51 65.25 64.20 64.79 65.14 65.78 66.05 66.46 65.94 64.94 64.45 64.06 64.01 63.28 62.02 59.98 57.29 55.07 57.17 57.68 53.26 48.94 47.78 50.15 52.61
56.67 56.84 56.65 57.46 58.51 59.32 59.72 59.21 58.58 60.05 61.35 65.22 65.60 66.14 65.41 65.23 65.07 64.64 63.89 63.30 62.57 61.44 60.90 58.18 57.05 55.37 57.15 58.00 54.13 52.31 47.62 46.10
55.90 55.91 55.59 56.15 56.73 56.79 55.79 55.91 56.22 56.76 57.39 58.52 60.70 62.49 64.09 64.54 64.63 63.97 63.09 62.64 62.40 61.82 60.44 58.25 57.86 56.49 56.10 56.01 55.89 55.04 54.50 48.37
55.12 53.79 53.59 54.67 54.94 55.23 54.89 54.45 54.65 54.39 54.79 54.84 56.12 57.87 60.82 62.26 62.51 62.29 62.02 61.61 61.16 61.39 60.45 59.34 58.22 57.55 57.15 56.77 55.20 53.64 52.60 52.33
52.76 52.10 51.35 52.54 52.89 53.11 53.52 53.77 54.04 53.85 53.90 53.63 54.34 54.75 56.07 58.03 59.69 59.50 58.87 59.55 59.60 59.13 58.79 58.68 58.30 57.44 57.13 56.58 56.67 55.60 55.54 54.14
51.87 51.06 51.26 51.88 52.30 52.53 53.34 53.61 52.03 52.27 52.74 53.78 54.09 54.37 54.63 56.17 56.63 57.26 57.93 58.34 58.18 58.31 57.82 57.36 57.38 57.36 56.86 56.67 56.59 56.13 55.73 55.20
MSLP
1009.78 1010.44 1011.17 1011.63 1011.95 1012.25 1012.62 1013.02 1013.42 1013.77 1014.10 1014.45 1014.75 1015.10 1015.36 1015.62 1015.85 1016.13 1016.41 1016.67 1016.91 1017.05 1017.22 1017.28 1017.35 1017.45 1017.43 1017.30 1017.09 1016.83 1017.20 1017.00
1009.72 1010.27 1010.86 1011.45 1011.95 1012.32 1012.63 1012.98 1013.41 1013.76 1014.13 1014.52 1014.86 1015.19 1015.42 1015.75 1016.08 1016.33 1016.56 1016.85 1017.09 1017.36 1017.42 1017.43 1017.53 1017.58 1017.57 1017.50 1017.19 1016.83 1016.86 1016.87
1009.42 1010.07 1010.68 1011.22 1011.77 1012.33 1012.74 1013.02 1013.35 1013.75 1014.10 1014.43 1014.82 1015.08 1015.39 1015.64 1015.80 1016.09 1016.52 1016.81 1017.14 1017.33 1017.50 1017.53 1017.58 1017.66 1017.67 1017.65 1017.55 1017.20 1016.95 1016.90
1009.18 1009.93 1010.59 1011.06 1011.16 1012.00 1012.54 1012.89 1013.27 1013.68 1013.99 1014.45 1014.64 1014.62 1014.89 1015.02 1015.42 1016.08 1016.48 1016.80 1017.02 1017.19 1017.23 1017.23 1017.25 1017.03 1017.11 1017.45 1017.50 1017.33 1017.40 1017.50
1008.62 1009.29 1009.87 1010.55 1010.80 1011.75 1012.31 1012.69 1013.07 1013.39 1013.64 1014.06 1014.42 1014.43 1014.60 1015.00 1015.60 1016.13 1016.52 1016.81 1016.94 1017.13 1017.32 1017.21 1016.85 1016.66 1016.45 1016.50 1016.58 1016.64 1017.16 1017.80
1008.17 1008.86 1009.61 1010.08 1010.10 1011.06 1011.57 1011.97 1012.42 1012.76 1013.06 1013.53 1013.98 1014.17 1014.33 1014.71 1015.17 1015.47 1015.70 1016.00 1016.30 1016.51 1016.76 1016.95 1016.65 1016.24 1016.25 1016.12 1016.18 1016.29 1016.73 1017.34
1007.49 1008.41 1009.12 1009.72 1009.85 1010.21 1010.74 1011.19 1011.67 1011.93 1012.45 1012.96 1013.33 1013.70 1014.26 1014.35 1014.69 1014.78 1014.88 1015.00 1015.47 1015.80 1016.00 1016.24 1016.34 1016.12 1016.14 1016.05 1016.13 1016.39 1016.56 1017.08
1006.51 1007.74 1008.66 1009.42 1009.84 1010.02 1010.20 1010.61 1011.08 1011.52 1011.94 1012.42 1012.87 1013.39 1013.85 1014.19 1014.22 1014.29 1014.13 1013.95 1014.50 1014.77 1015.25 1015.81 1016.10 1016.37 1016.47 1016.29 1016.35 1016.49 1016.41 1017.14
1006.33 1007.24 1008.40 1009.24 1009.79 1009.94 1010.23 1010.30 1010.78 1011.34 1011.65 1011.95 1012.51 1013.14 1013.54 1013.82 1014.20 1014.04 1013.72 1013.61 1013.84 1014.31 1014.82 1015.29 1015.85 1016.08 1016.34 1016.40 1016.43 1016.49 1016.58 1016.78
1005.85 1007.22 1008.46 1009.36 1010.03 1010.35 1010.58 1010.58 1010.76 1011.10 1011.49 1011.80 1012.10 1012.56 1013.01 1013.57 1014.09 1014.03 1013.74 1013.83 1013.76 1014.31 1014.70 1015.14 1015.50 1015.73 1015.86 1016.08 1016.47 1016.59 1016.70 1016.96
1005.88 1007.08 1008.45 1009.36 1010.37 1010.74 1010.94 1011.05 1011.36 1011.33 1011.23 1011.55 1011.98 1012.30 1012.70 1013.19 1013.73 1013.80 1013.81 1013.82 1013.95 1014.27 1014.64 1015.08 1015.48 1015.47 1015.47 1015.66 1015.94 1016.24 1016.48 1016.46
1006.94 1007.61 1008.60 1009.56 1010.34 1010.87 1011.18 1011.30 1011.50 1011.67 1011.74 1011.95 1012.05 1012.36 1012.50 1012.74 1013.16 1013.52 1013.70 1013.95 1013.98 1014.00 1014.23 1014.57 1014.87 1014.98 1014.94 1015.23 1015.51 1015.84 1016.16 1016.42
1007.29 1008.02 1008.82 1009.31 1010.10 1010.83 1011.22 1011.43 1011.64 1011.87 1012.08 1012.10 1012.24 1012.37 1012.48 1012.67 1013.00 1013.26 1013.50 1013.80 1014.02 1014.24 1014.37 1014.75 1015.00 1014.86 1015.26 1015.29 1015.46 1015.52 1015.74 1015.85
1007.69 1007.95 1008.26 1008.82 1009.36 1010.10 1010.59 1011.01 1011.20 1011.47 1011.72 1011.82 1012.10 1012.35 1012.53 1012.81 1013.03 1013.29 1013.53 1013.83 1014.02 1014.11 1014.17 1014.33 1014.43 1014.62 1014.95 1015.33 1015.72 1015.91 1015.70 1015.47
1008.45 1008.72 1008.92 1009.14 1009.40 1009.78 1010.24 1010.64 1011.04 1011.25 1011.39 1011.52 1011.69 1011.84 1012.04 1012.41 1012.68 1013.00 1013.23 1013.47 1013.65 1013.91 1013.84 1013.98 1013.98 1014.03 1013.99 1014.27 1015.17 1015.02 1015.22 1015.37
1009.21 1009.34 1009.55 1009.71 1009.84 1010.00 1010.25 1010.33 1010.72 1010.91 1010.86 1011.15 1011.32 1011.36 1011.81 1011.95 1012.08 1012.53 1013.06 1013.32 1013.43 1013.54 1013.56 1013.81 1013.89 1013.89 1013.72 1013.44 1013.26 1013.49 1014.27 1014.78
1009.72 1009.76 1009.99 1010.20 1010.29 1010.46 1010.72 1010.87 1011.03 1011.00 1010.96 1010.97 1010.95 1011.13 1011.18 1011.58 1011.70 1012.06 1012.45 1012.84 1013.12 1013.26 1013.30 1013.56 1013.52 1013.61 1013.58 1013.33 1013.08 1013.12 1013.04 1013.42
1010.00 1009.99 1010.25 1010.59 1010.88 1011.03 1011.16 1011.30 1011.40 1011.45 1011.48 1011.50 1011.38 1011.13 1011.05 1011.34 1011.57 1011.99 1012.33 1012.59 1012.89 1012.91 1012.96 1012.99 1013.14 1013.15 1013.13 1013.07 1012.73 1012.85 1012.64 1012.54
1009.73 1009.89 1010.15 1010.40 1010.66 1010.85 1011.03 1011.25 1011.47 1011.61 1011.54 1011.49 1011.46 1011.43 1011.35 1011.20 1011.32 1011.69 1011.90 1012.06 1012.31 1012.51 1012.67 1012.56 1012.61 1012.63 1012.63 1012.24 1012.25 1012.19 1012.03 1011.73
1009.83 1010.05 1010.19 1010.34 1010.56 1010.77 1010.99 1011.11 1011.23 1011.34 1011.28 1011.32 1011.43 1011.57 1011.67 1011.53 1011.44 1011.60 1012.07 1012.17 1012.14 1012.18 1012.47 1012.73 1012.59 1012.28 1011.88 1011.55 1011.62 1011.41 1011.35 1011.45
Wind_Speed
10 11 10 10 11 12 12 12 12 12 12 11 11 10 10 9 9 8 9 10 8 6 4 2 1 1 3 5 8 9 4 3
11 11 11 10 8 10 11 12 12 12 11 10 10 9 9 8 6 6 10 9 8 5 4 3 1 2 4 6 9 10 4 5
12 11 10 10 9 9 10 12 11 11 11 10 9 7 7 9 9 13 11 9 8 6 5 4 3 4 5 7 9 3 4 4
12 11 11 10 9 11 9 9 7 7 8 8 6 7 9 10 10 12 11 9 8 7 7 7 7 5 5 5 4 1 4 4
13 12 12 12 7 8 5 5 5 6 9 9 7 5 5 5 5 5 5 7 5 5 4 5 7 6 5 5 6 5 4 3
12 13 12 11 7 9 9 8 7 7 8 10 6 4 5 4 5 7 7 7 7 8 5 6 7 7 2 6 4 2 5 4
13 13 11 10 6 10 9 8 9 8 8 9 8 5 5 4 6 6 8 8 8 6 5 7 6 2 4 3 1 3 5 5
14 13 12 9 7 4 4 5 6 5 7 8 8 5 5 4 5 5 5 6 7 6 5 5 3 4 5 4 4 4 3 8
13 12 13 10 8 5 4 3 4 4 5 9 9 7 6 6 5 4 4 3 5 5 4 2 4 4 5 5 3 3 3 3
14 13 9 7 3 3 4 3 3 4 5 6 8 8 8 6 5 4 4 2 3 3 4 4 4 5 4 5 4 4 4 5
10 14 13 11 5 2 3 3 3 4 2 3 5 6 7 6 5 5 5 3 3 4 3 4 4 5 5 5 5 5 6 5
10 9 11 9 5 3 1 0 1 2 2 2 4 4 6 6 6 6 5 4 4 3 5 5 4 5 7 6 6 5 5 5
9 12 10 7 5 4 2 2 2 1 1 1 2 2 4 4 3 4 5 4 4 4 3 5 5 4 3 2 3 5 5 6
7 7 7 9 8 6 3 3 3 4 4 5 5 5 4 4 4 4 4 4 6 8 6 6 5 6 6 3 3 3 5 6
8 9 9 8 4 6 4 3 1 2 4 4 5 7 8 7 6 5 5 5 6 8 7 10 9 8 9 6 4 6 5 4
7 7 6 7 9 5 4 2 2 1 2 4 2 7 6 6 7 7 7 5 7 6 7 7 7 9 5 11 5 6 5 3
4 6 7 7 7 7 5 6 4 4 4 6 2 3 5 5 6 6 6 6 7 8 9 9 7 10 9 9 12 8 5 4
4 4 6 6 4 4 3 3 4 4 5 4 4 3 2 3 3 3 4 4 5 6 7 8 9 11 11 11 10 11 11 5
5 5 5 4 4 3 3 3 3 5 5 3 4 4 4 3 3 4 4 4 5 5 6 7 8 8 11 11 9 11 12 11
4 3 2 3 1 2 2 2 2 3 3 3 3 3 4 5 4 4 5 4 5 5 5 6 8 9 14 13 10 11 11 11
Wind_Direction
137 147 148 139 139 141 140 141 142 144 146 145 147 153 158 160 165 165 148 145 145 150 164 161 171 286 281 277 292 301 314 4
149 156 160 160 154 144 147 149 152 155 154 155 155 160 165 172 173 180 149 152 145 165 178 182 217 283 288 283 283 300 260 108
159 161 164 162 160 158 152 158 159 159 160 159 150 180 173 169 195 147 149 156 151 170 192 199 209 243 266 279 306 299 76 94
158 162 164 167 175 152 171 169 173 179 175 166 190 209 174 184 170 151 148 155 165 182 198 206 209 213 192 226 248 210 71 60
165 171 166 170 193 151 174 170 182 188 184 172 208 210 183 115 124 144 149 175 187 187 201 227 225 230 182 182 207 175 144 118
178 170 166 182 185 161 178 179 188 185 191 183 190 229 161 159 162 184 184 177 209 181 192 221 243 244 230 192 191 202 137 125
171 166 165 183 213 173 176 190 183 190 182 182 187 196 170 200 178 208 197 181 198 175 209 197 228 268 286 295 163 241 154 142
156 162 164 171 207 239 166 160 166 166 161 176 192 186 173 207 229 223 230 169 188 178 185 177 158 220 228 248 219 230 122 119
154 160 161 171 193 201 182 172 143 165 165 169 182 188 193 198 238 240 243 224 176 149 163 170 170 221 200 210 240 219 165 200
148 122 116 120 142 283 317 329 195 184 177 179 186 188 189 201 227 240 239 266 171 170 165 184 203 204 194 185 197 201 215 164
127 130 135 138 161 172 280 307 350 347 182 181 177 196 204 193 218 222 232 237 216 183 183 172 197 215 195 182 179 196 194 182
84 81 122 135 134 148 81 356 329 25 8 278 187 205 230 221 209 214 227 237 238 192 183 195 206 195 212 184 176 196 188 202
140 142 149 147 148 143 146 171 196 237 248 296 347 253 227 210 230 218 183 210 221 238 203 207 231 225 193 205 186 193 205 192
107 99 135 173 157 155 155 168 179 179 184 202 194 215 223 220 222 228 223 223 232 222 214 210 210 214 198 170 188 250 228 204
75 72 51 37 60 142 121 132 44 182 195 204 203 205 201 201 209 222 227 227 229 239 234 214 214 221 212 177 168 220 180 217
75 74 77 54 24 67 70 67 76 126 58 155 179 199 220 214 212 210 218 226 232 224 229 233 226 228 240 227 234 164 181 194
52 92 84 52 42 35 24 29 6 351 357 359 353 214 201 219 211 210 209 224 235 234 228 223 231 234 237 237 236 242 237 153
102 73 94 95 73 49 32 17 348 341 342 328 297 272 211 158 303 251 211 202 235 246 233 233 231 234 237 246 234 227 235 235
176 94 78 81 71 64 23 350 324 286 277 289 336 345 344 316 210 217 246 230 218 215 245 247 234 234 242 241 240 242 242 242
121 107 156 111 133 67 352 329 305 308 308 342 336 331 306 322 334 10 356 311 269 233 230 255 265 259 247 237 245 239 236 236